Wind_Speed
19 18 18 18 17 18 17 15 16 15 15 15 15 16 16 15 14 13 12 13 13 11 11 11 11 11 11 10 8 6 6 7 6 5 4 4 4 4 5 6 8 8 6 5 4 4 4 4 5 9 12 13 11 8 8 5 8 12 10 7 5 3
20 19 17 16 15 16 17 15 15 15 15 15 16 17 16 14 13 14 14 14 14 13 12 12 12 11 12 11 10 8 8 8 6 5 4 4 5 5 6 6 8 8 6 5 3 3 3 4 4 6 10 12 10 8 7 3 6 9 9 7 5 4
21 21 15 13 14 15 16 14 15 16 15 16 16 16 15 13 12 13 13 12 13 13 11 13 13 12 12 11 11 10 9 9 6 5 4 4 5 6 7 7 8 8 6 5 4 4 4 4 5 5 7 9 8 6 5 5 6 5 6 5 4 4
19 20 17 15 15 17 18 16 17 17 17 18 17 16 14 12 12 12 12 12 12 14 12 12 13 11 10 11 11 11 10 10 7 5 5 4 5 6 7 7 8 9 7 6 5 6 7 6 5 6 6 5 4 5 7 7 7 7 7 5 5 4
19 18 17 18 18 18 19 18 16 16 17 19 18 17 14 13 13 13 14 14 14 15 14 13 15 12 9 10 12 13 11 10 8 6 5 5 6 6 6 7 9 9 8 6 6 6 8 9 7 6 6 4 3 5 6 6 6 8 7 5 5 4
17 17 14 15 18 18 19 18 15 14 16 17 18 17 16 16 15 17 17 17 18 15 14 14 15 14 12 12 13 13 12 11 10 7 5 6 7 6 6 8 9 9 8 7 8 6 6 8 7 6 6 5 3 3 5 5 6 7 5 5 6 4
12 13 12 14 15 16 15 13 14 13 13 15 16 13 12 16 17 20 18 17 19 15 14 14 11 10 9 10 11 11 12 12 11 7 7 9 9 6 7 10 9 8 8 8 8 6 4 6 6 5 5 5 4 2 3 4 5 6 5 5 6 5
9 10 12 15 14 15 12 9 11 10 11 13 13 9 6 11 16 21 16 14 16 14 16 14 9 7 7 11 10 9 12 13 10 9 10 11 10 7 7 10 9 8 8 8 7 6 5 6 7 5 2 3 4 1 1 2 3 5 4 5 6 5
8 7 12 12 8 11 12 12 11 9 10 10 8 8 7 7 10 14 13 13 13 12 13 10 9 8 7 13 14 11 13 12 11 12 11 10 9 8 5 7 7 7 7 7 8 8 6 6 8 7 2 2 3 2 1 1 2 3 4 5 5 5
7 5 9 9 6 6 7 10 10 9 9 5 4 6 6 5 6 7 9 10 9 9 9 7 6 6 7 11 15 16 14 11 12 14 13 10 9 8 6 6 6 6 5 6 8 9 7 6 6 6 4 4 4 3 1 1 1 2 4 5 6 5
8 6 6 6 9 7 4 7 6 5 5 4 3 6 6 6 6 7 8 9 9 8 8 8 6 8 11 11 11 16 13 11 13 13 13 10 9 9 6 6 5 5 4 3 5 7 6 5 5 5 6 6 5 4 3 3 3 3 4 6 7 6
9 9 4 3 7 7 3 4 2 2 3 2 4 6 8 6 4 7 8 9 10 8 7 8 7 10 14 9 6 10 8 9 12 14 13 11 11 9 5 3 2 3 5 3 4 5 4 3 4 4 4 5 4 4 5 5 4 4 5 5 7 7
8 9 4 4 4 4 3 1 2 2 3 6 4 3 6 6 2 6 7 8 8 7 7 6 6 8 10 7 5 6 6 5 9 14 15 12 11 10 8 7 6 5 4 4 4 4 2 1 1 1 2 3 3 4 4 4 4 5 6 6 6 8
9 9 5 4 3 4 4 2 2 2 5 7 4 1 2 4 3 6 6 7 6 6 7 4 4 4 4 5 4 3 5 2 6 13 13 11 12 12 12 11 10 7 4 4 3 1 2 3 2 2 1 2 2 3 3 3 4 5 6 7 6 7
11 11 7 6 5 4 3 3 3 3 5 7 3 2 2 2 5 6 6 7 5 5 7 5 4 2 1 2 5 3 4 2 5 11 11 10 11 13 13 11 10 9 6 5 5 2 3 3 2 0 1 2 2 2 3 5 6 5 5 7 8 8
12 12 9 8 7 6 5 3 4 4 4 4 3 2 3 3 2 4 5 6 6 5 6 6 5 4 2 2 6 6 4 5 8 12 11 9 10 12 13 12 12 12 10 8 6 4 4 5 6 5 5 3 1 2 4 6 6 6 7 7 9 9
12 11 10 9 8 6 6 4 3 3 2 3 3 1 2 4 6 6 4 7 8 7 7 6 5 6 4 2 6 8 6 6 8 12 13 11 11 11 12 14 13 13 12 10 8 5 6 8 8 8 8 5 3 2 2 4 6 6 7 7 8 9
13 12 11 10 8 7 7 4 4 4 3 3 3 2 4 6 7 8 6 7 7 7 8 6 6 6 4 3 4 7 7 6 6 10 13 12 10 10 12 13 11 13 13 10 9 7 7 9 7 6 7 5 4 5 5 4 3 4 5 6 7 7
14 14 12 11 9 6 7 4 4 4 2 3 4 3 5 6 6 7 6 6 5 6 7 5 6 6 4 4 6 8 6 6 6 8 11 10 9 10 12 13 12 12 13 10 8 8 9 10 7 5 6 5 3 5 5 5 5 4 4 5 6 7
15 15 13 11 10 7 7 5 4 6 4 5 7 7 6 5 5 5 5 5 5 5 6 5 6 6 4 4 6 7 6 6 6 7 10 9 9 9 12 14 13 11 10 7 7 7 10 10 7 5 4 3 2 3 5 4 5 6 6 6 6 7
15 15 14 12 11 9 9 7 4 7 7 5 4 6 6 6 6 6 5 6 7 6 6 6 6 5 5 7 7 5 6 7 6 7 9 10 10 9 10 10 11 9 7 6 7 7 9 8 5 4 3 2 2 1 2 3 3 5 7 8 8 7
16 15 13 12 10 8 8 7 5 6 8 6 6 9 9 6 6 6 6 6 8 7 7 6 6 5 4 6 6 4 4 5 5 6 7 9 10 8 8 7 8 9 8 8 7 7 9 8 4 4 3 2 2 0 1 1 2 5 6 6 8 7
17 15 13 12 10 8 8 6 5 6 9 10 12 14 12 8 7 7 8 7 8 7 7 7 6 5 4 4 3 3 4 3 3 4 5 7 9 8 7 8 8 9 9 9 7 5 9 10 7 5 4 3 2 1 1 0 1 4 5 5 6 6
17 16 15 13 12 11 9 8 9 11 12 14 12 11 11 9 8 9 9 9 9 8 8 8 8 7 6 5 4 4 4 3 3 2 3 4 6 6 6 7 7 8 9 7 6 6 8 9 9 7 3 1 0 0 2 2 1 2 4 5 5 5
19 19 18 15 14 13 12 11 11 11 12 13 11 10 11 9 8 9 10 9 9 9 9 9 9 9 8 6 6 6 5 4 4 3 3 5 6 7 6 6 6 7 7 6 6 7 8 9 10 7 2 2 0 1 1 2 2 1 2 4 5 5
21 21 20 17 16 16 14 13 13 12 12 14 13 13 12 10 10 11 11 10 9 10 10 10 10 10 9 8 7 7 6 7 7 6 6 6 7 6 5 6 6 6 4 4 5 4 4 7 8 7 4 2 2 2 1 1 2 1 2 4 5 6
21 22 22 18 18 18 17 15 15 15 15 16 15 14 13 12 12 12 11 10 10 10 10 11 10 10 10 9 9 9 9 9 7 6 8 9 8 5 4 5 5 4 4 4 3 5 4 4 4 5 6 5 5 3 2 1 1 1 2 3 5 5
20 24 25 21 21 20 18 17 16 16 15 16 17 16 15 14 13 12 12 11 11 10 10 10 10 11 11 10 10 10 10 10 8 9 9 9 8 10 9 8 7 6 8 9 7 6 8 8 6 4 4 3 2 2 3 2 3 2 2 2 2 3
21 25 27 23 23 21 19 19 16 15 15 17 19 17 16 15 14 13 13 13 12 11 10 10 11 11 11 11 11 11 11 12 13 13 12 10 9 11 11 9 8 9 10 10 10 10 10 8 7 6 3 2 3 2 1 1 3 3 2 1 1 2
24 27 29 25 24 22 20 20 18 16 18 20 19 18 18 16 15 14 13 14 13 12 11 11 11 11 11 11 11 11 11 11 12 13 12 11 11 10 11 11 10 10 11 10 10 10 12 12 9 8 9 8 6 5 3 1 1 1 2 3 2 2
26 28 31 27 25 23 22 21 18 17 20 21 20 20 20 17 15 15 14 14 14 13 12 11 11 10 10 10 11 11 11 11 11 12 11 11 11 11 11 11 11 12 12 12 11 10 12 12 11 10 11 12 11 9 7 6 6 7 6 3 2 3
28 29 31 29 27 24 23 22 18 18 21 21 21 22 21 18 17 16 15 16 16 15 14 12 10 10 9 9 10 11 10 10 11 11 10 10 11 10 10 11 11 12 12 12 11 11 11 11 11 11 11 11 11 11 10 9 9 9 9 8 7 4
29 32 33 29 29 26 24 23 20 20 22 22 21 21 21 19 18 17 16 17 18 17 15 14 12 11 10 9 9 10 9 9 10 10 10 10 11 10 10 11 11 11 12 12 12 12 12 11 11 10 9 10 10 10 9 8 7 6 6 7 7 6
31 33 33 29 28 25 24 23 21 21 22 23 22 21 21 20 18 18 17 17 17 17 17 16 14 13 11 9 9 9 8 9 9 10 10 9 9 9 10 11 10 10 11 10 10 11 11 11 10 9 9 10 8 7 7 6 6 7 7 7 8 8
31 33 31 29 28 25 23 23 21 21 22 23 23 21 21 20 19 19 17 16 16 17 17 16 16 14 12 11 10 9 9 9 10 9 9 9 9 9 9 9 9 9 9 8 9 10 9 10 10 8 10 9 6 5 5 5 4 5 6 7 7 8
23 31 30 28 27 23 22 22 21 22 22 22 22 21 21 21 19 19 18 17 15 16 17 16 17 16 14 13 12 11 10 10 10 10 10 9 9 9 8 8 9 8 8 8 8 8 7 9 8 7 9 8 5 4 4 5 3 1 1 2 3 5
18 26 27 27 27 23 21 20 19 20 21 21 21 20 20 21 20 18 19 19 15 15 17 17 17 16 14 14 13 12 11 11 10 10 10 9 9 9 8 8 8 8 7 7 7 6 6 6 6 6 6 6 5 3 3 3 2 1 1 2 2 2
Wind_Direction
174 169 177 179 180 180 177 188 192 187 181 178 182 185 189 187 180 177 180 186 177 169 172 168 174 185 185 187 188 189 198 201 206 196 185 185 180 182 189 187 179 167 159 157 132 119 113 107 113 125 129 140 148 99 76 59 79 116 130 126 115 78
171 172 180 182 186 183 175 185 192 188 182 180 190 193 192 187 181 180 188 191 177 169 171 171 174 181 180 181 186 196 204 205 207 199 197 193 187 191 195 197 190 180 173 167 156 149 138 127 127 139 138 142 148 110 88 96 93 112 126 123 116 83
158 163 166 165 176 179 174 184 193 194 186 185 196 201 196 189 185 185 194 199 183 175 179 178 180 184 180 180 186 190 201 208 208 205 208 203 199 197 197 207 201 194 190 182 185 185 178 147 137 155 154 141 134 122 138 139 105 120 135 123 112 84
148 152 146 140 152 167 174 184 193 201 197 194 199 200 199 192 183 185 192 200 192 182 189 192 190 194 183 181 187 183 192 206 208 207 207 208 207 203 200 207 205 201 196 187 192 202 204 191 158 156 154 142 129 141 165 148 122 145 148 111 93 85
144 145 148 146 150 161 173 183 192 204 205 207 210 201 198 196 190 199 195 190 195 190 192 198 196 198 189 183 184 179 187 201 205 203 204 212 209 208 206 205 206 199 190 180 187 210 211 203 193 171 144 139 159 159 164 154 129 140 142 106 92 83
139 139 146 153 156 159 166 177 186 203 211 216 220 210 202 203 206 216 208 188 192 195 192 195 195 193 188 188 187 179 184 196 202 203 199 218 228 219 204 208 213 198 186 184 195 220 213 191 187 180 166 159 164 173 173 163 139 136 137 112 102 85
135 130 135 148 157 163 168 178 185 199 218 223 223 217 206 210 211 211 209 191 190 193 187 192 196 192 184 192 197 182 185 196 200 207 196 213 236 224 202 212 209 197 193 187 190 204 193 178 177 180 187 173 151 171 179 157 146 146 147 129 111 85
131 123 136 150 155 169 177 184 194 205 220 227 231 235 223 211 201 195 195 190 194 191 183 188 193 195 191 196 202 185 190 199 193 200 204 210 219 203 207 219 200 192 194 177 175 177 174 188 195 193 194 165 155 165 182 151 151 154 157 149 125 97
132 125 141 156 165 179 182 177 192 213 218 228 241 251 259 226 193 186 183 184 197 193 185 196 196 186 179 187 188 173 183 198 185 185 198 205 195 172 191 215 194 190 187 174 178 176 175 193 205 202 181 159 188 198 162 171 163 157 165 164 144 122
148 150 146 163 175 175 183 181 192 213 218 228 226 237 265 242 205 200 192 186 193 190 187 202 196 164 166 190 179 157 158 179 180 177 184 189 175 160 174 198 193 189 186 187 184 182 184 186 195 201 195 195 212 223 204 206 200 186 179 171 163 146
159 160 149 165 166 154 174 205 221 252 263 312 292 258 261 239 220 216 212 207 203 198 190 184 180 162 176 201 172 147 144 158 170 170 170 168 159 161 179 196 197 183 182 189 167 175 192 192 193 200 204 209 210 216 230 233 225 231 207 181 184 178
159 164 149 97 150 149 158 203 247 285 263 337 354 309 274 257 222 193 192 201 208 210 197 183 183 167 168 182 154 140 140 148 164 165 159 152 143 143 151 172 193 177 185 184 126 140 177 197 211 212 216 229 225 218 227 232 230 240 233 205 200 201
144 158 147 64 105 117 112 130 24 81 134 127 96 339 281 275 226 170 175 184 195 197 191 188 191 171 158 164 163 153 149 148 165 162 156 153 146 139 136 123 110 117 152 169 122 117 133 88 203 252 273 266 262 247 244 244 247 250 245 236 217 215
137 144 132 90 96 75 89 79 27 89 71 78 98 27 280 252 182 149 158 159 163 179 184 185 172 155 143 162 194 175 148 158 176 164 155 153 154 153 150 134 126 123 119 163 170 182 338 21 52 59 351 300 303 278 275 285 272 263 256 252 242 234
140 141 123 112 118 79 93 88 38 54 40 41 60 27 56 179 180 157 152 136 137 182 188 181 160 132 120 212 248 230 140 173 188 168 157 150 153 154 150 138 138 152 155 166 174 203 274 308 309 25 349 336 6 350 330 324 298 281 284 274 260 250
131 133 128 123 124 99 102 101 44 49 24 37 78 31 56 82 114 140 164 146 132 151 162 173 176 157 148 232 249 226 168 186 182 166 159 148 147 147 148 142 140 155 169 169 158 163 220 255 254 246 274 293 353 30 14 354 334 309 304 298 280 264
130 129 129 124 125 116 107 103 94 95 24 45 75 37 96 81 69 84 132 149 141 148 151 166 170 150 141 191 235 219 187 188 182 171 163 144 139 145 158 161 151 154 166 169 164 170 208 232 232 228 241 249 259 298 332 350 357 333 305 303 298 277
138 132 129 127 127 125 120 105 99 106 48 67 76 38 94 91 82 77 89 124 135 151 153 162 165 150 134 129 185 197 180 178 184 174 162 148 147 150 159 166 156 155 163 168 178 187 206 227 231 215 221 226 248 270 271 268 298 333 311 304 304 283
140 133 132 131 128 123 125 111 99 123 85 88 95 53 74 87 87 76 74 99 109 122 128 138 147 139 130 125 161 179 174 173 179 175 164 154 155 154 159 165 155 154 159 165 187 194 198 215 222 217 227 230 243 265 271 257 251 273 288 295 303 288
142 138 136 133 136 143 140 137 133 131 91 71 83 70 64 65 77 80 73 83 91 105 104 105 115 117 133 142 158 176 185 185 180 185 182 168 161 162 168 170 163 158 153 162 200 201 195 210 230 238 235 233 247 282 281 270 265 271 270 268 280 286
146 139 143 148 153 160 150 147 142 122 108 98 108 107 94 71 71 73 62 63 69 78 83 90 100 109 145 151 150 165 178 180 176 190 196 186 185 179 172 175 173 174 175 196 229 228 207 206 228 229 201 225 257 309 290 272 263 255 253 253 253 266
151 146 150 157 157 153 141 142 146 135 133 132 120 121 115 89 81 75 59 60 65 66 70 79 91 100 133 149 150 145 137 158 176 195 206 199 203 195 178 187 185 187 201 214 236 240 211 195 195 203 182 198 221 224 348 358 254 225 216 230 236 241
152 154 157 154 147 137 124 124 122 111 113 106 90 95 100 91 93 92 81 78 78 75 72 73 82 95 99 104 119 120 113 128 155 180 200 196 206 203 188 200 196 195 206 216 237 230 205 205 209 201 177 183 183 172 202 144 272 218 198 217 229 223
158 159 160 152 145 138 126 116 105 96 100 103 95 93 100 98 95 93 90 87 83 81 78 72 68 80 87 76 61 62 90 108 111 142 168 168 194 198 189 200 202 206 210 213 225 211 209 219 216 202 169 154 126 214 213 172 177 215 210 232 230 215
166 165 164 155 149 145 137 128 117 107 104 108 116 121 117 113 111 104 98 92 86 83 83 79 74 80 87 85 78 64 76 105 104 116 132 140 163 170 175 191 197 207 212 214 213 206 210 212 212 213 183 64 53 298 302 172 177 217 224 234 230 215
166 164 165 160 156 152 145 142 136 132 131 136 147 145 135 130 124 114 104 98 93 86 86 87 85 88 91 92 87 66 68 84 76 69 74 90 120 141 168 178 179 187 190 205 208 198 213 220 225 229 222 235 211 188 209 197 216 258 234 237 238 239
169 163 165 163 160 156 152 154 154 152 156 157 150 137 131 128 119 115 111 106 101 94 91 89 88 90 91 91 83 64 65 76 76 72 67 70 79 74 85 109 118 140 116 98 151 155 158 192 220 221 220 241 237 219 247 238 207 254 245 238 233 252
177 164 165 167 163 160 157 161 163 164 165 152 136 128 129 126 122 125 123 117 110 103 98 93 90 89 86 85 83 75 69 68 77 89 81 73 70 63 70 80 75 85 89 77 81 114 137 152 161 169 195 225 237 259 274 244 219 240 278 273 232 249
183 166 166 170 165 163 162 164 168 168 156 136 131 135 135 131 132 136 132 127 120 109 104 98 92 89 85 84 82 78 71 65 70 81 83 81 79 76 80 85 79 77 82 82 77 82 97 113 118 103 89 131 143 136 170 221 227 239 240 264 283 250
184 167 168 171 166 166 165 165 173 171 148 135 140 145 140 138 141 141 136 131 125 118 113 106 99 95 89 88 86 81 76 71 71 77 84 88 90 90 89 88 88 85 85 87 83 81 79 78 79 71 60 62 77 83 70 62 114 262 234 212 242 298
183 169 169 171 168 168 167 169 177 170 149 144 151 147 141 145 149 146 143 141 136 131 126 118 113 109 102 99 97 92 87 83 83 83 87 92 92 91 90 89 88 88 88 86 85 90 90 81 77 75 67 60 58 58 49 38 33 15 4 3 338 328
179 169 170 171 170 168 167 171 178 168 153 152 155 148 147 153 156 153 153 150 143 136 135 136 133 125 120 117 109 105 101 97 96 94 95 98 98 94 93 93 90 88 89 88 87 90 92 89 84 78 70 64 62 60 54 41 29 22 20 9 348 317
176 169 170 171 170 169 168 172 177 171 158 155 157 153 153 159 160 159 159 155 149 145 147 150 151 146 139 131 122 118 116 114 113 108 105 104 102 103 101 97 94 91 88 85 84 83 82 84 84 81 76 72 68 63 58 48 30 20 17 1 345 330
170 168 170 169 169 170 170 173 176 173 163 159 160 157 158 162 163 163 163 162 158 156 159 161 161 157 151 145 137 132 130 128 126 121 118 117 113 112 109 104 99 94 91 90 90 88 87 85 83 87 89 80 69 66 63 52 32 18 16 11 4 359
166 165 168 166 169 173 172 173 175 173 168 164 163 161 162 166 168 167 167 170 167 164 164 167 167 164 159 156 151 148 145 138 136 134 131 130 125 118 114 114 112 107 104 103 97 92 93 93 86 88 96 90 75 69 69 70 49 12 17 24 10 358
167 162 166 164 167 176 175 172 174 173 171 169 167 166 167 169 172 172 172 174 175 171 169 170 171 169 165 164 163 160 158 152 149 147 140 137 136 133 129 127 124 119 113 107 100 95 91 91 86 86 97 100 96 74 58 81 88 355 23 50 20 360
179 161 164 164 165 176 178 173 173 173 173 172 171 172 171 169 173 177 176 177 178 177 175 172 173 173 168 169 171 167 165 163 159 157 152 151 152 149 147 143 139 136 129 123 123 122 110 98 92 88 87 91 104 87 30 63 79 359 92 96 73 54
Height
784 786 788 789 790 789 792 795 797 798 799 799 799 799 798 801 804 806 809 809 810 812 813 814 816 817 816 815 815 816 817 819 820 820 820 820 821 822 823 824 825 825 825 826 826 827 827 827 828 827 827 828 828 828 828 829 830 831 831 832 834 835
783 785 788 790 791 790 791 795 798 799 799 799 798 798 798 801 804 806 808 808 810 812 813 815 817 817 815 814 814 815 816 818 819 820 820 820 821 822 823 824 824 825 825 826 826 827 827 827 828 828 828 828 828 828 829 829 830 831 830 832 834 834
783 785 788 791 792 792 794 796 798 798 799 799 798 798 800 802 805 807 809 810 812 812 814 816 816 816 815 814 814 814 816 817 818 819 820 821 822 822 823 824 824 825 825 825 826 827 827 827 828 828 828 828 828 829 829 830 830 830 830 832 833 834
785 787 788 790 792 794 796 797 798 799 799 798 798 800 802 803 805 807 808 810 812 812 814 816 817 816 814 815 814 815 816 817 818 819 821 821 822 823 824 824 824 825 825 825 826 826 827 827 828 828 828 828 828 829 830 830 830 830 830 832 833 834
786 788 789 790 791 794 796 797 798 798 799 798 799 801 802 804 805 806 807 809 810 812 813 814 816 815 814 814 814 815 816 817 819 820 822 823 823 824 824 825 825 824 824 825 825 826 827 828 828 828 828 829 829 830 830 830 830 830 831 832 832 834
786 787 789 790 791 793 794 795 796 797 798 798 800 801 802 803 803 806 808 808 810 812 813 813 814 814 814 814 814 815 816 818 820 822 823 824 824 824 825 825 825 824 824 824 825 826 827 828 828 828 829 829 830 830 831 831 831 831 831 832 832 833
785 787 789 791 792 792 792 793 794 795 797 797 799 801 803 803 804 806 808 808 809 812 813 813 812 813 816 816 816 817 817 819 821 823 824 824 824 824 825 826 825 825 825 825 825 826 828 829 829 828 829 829 830 830 831 831 832 831 831 832 832 833
784 787 788 790 792 792 792 792 792 793 795 797 799 801 803 804 805 806 806 807 808 810 811 811 810 812 815 815 814 815 817 818 819 822 823 822 822 823 824 825 826 825 825 825 825 826 828 829 829 828 829 829 830 830 831 831 832 832 832 832 832 833
783 786 788 790 791 792 792 793 794 794 796 799 801 802 802 802 803 804 804 805 807 808 808 809 809 810 813 814 814 815 816 816 817 820 821 820 820 820 822 825 826 826 826 825 825 827 828 829 830 829 829 829 830 830 831 832 832 833 833 832 833 833
782 785 788 789 790 791 792 793 793 795 796 798 801 802 802 801 802 803 803 804 806 807 807 808 809 809 813 816 817 816 816 816 817 819 819 819 819 819 822 825 826 826 826 826 826 827 828 829 830 830 830 830 830 830 831 832 832 833 833 833 833 834
783 785 787 788 789 790 791 792 792 793 794 795 796 799 801 802 802 803 804 804 805 806 806 807 808 810 816 820 819 816 815 816 818 819 819 819 820 821 823 825 827 827 827 827 827 828 829 830 830 830 830 830 830 830 831 832 832 833 834 834 834 834
783 784 786 787 789 791 791 792 793 792 792 793 795 796 799 801 802 803 803 803 804 805 806 807 808 811 817 819 817 816 816 818 819 819 819 820 821 822 823 825 827 828 827 827 827 828 829 830 829 830 830 830 830 831 831 832 832 833 834 834 834 834
782 784 785 787 788 790 791 792 793 794 794 795 797 798 799 800 801 802 803 803 803 804 805 806 807 809 813 815 815 815 817 818 819 819 820 820 821 822 822 824 826 827 827 827 827 828 829 829 829 829 830 830 830 830 830 831 831 832 833 834 834 834
783 784 786 787 788 790 791 792 793 794 795 796 799 800 801 801 801 802 802 802 802 803 803 804 806 807 809 812 813 813 816 816 818 819 820 821 821 821 821 822 823 824 826 826 827 828 829 829 830 829 830 830 830 830 830 830 830 831 832 833 834 834
783 785 786 787 788 789 790 791 793 793 794 796 798 799 800 801 801 801 800 801 802 803 804 804 805 806 807 809 810 812 815 816 817 819 821 821 821 821 820 821 821 822 824 826 827 828 829 830 830 830 830 830 830 831 831 831 830 830 831 832 833 834
784 785 786 787 788 789 790 791 792 792 793 795 796 798 799 800 800 801 801 801 803 804 805 805 806 806 806 807 808 808 811 814 816 818 820 820 821 820 820 820 821 821 823 824 825 828 830 832 831 831 831 831 831 831 831 831 831 831 831 831 832 832
785 786 787 788 789 789 790 791 791 792 793 793 795 796 797 798 799 801 802 803 804 806 807 807 808 807 806 807 807 806 808 812 815 816 818 819 819 819 818 819 820 821 822 823 823 826 830 832 832 832 832 832 831 831 831 831 831 831 831 831 831 831
786 787 788 789 790 790 790 791 791 792 793 793 794 796 797 798 799 801 803 804 805 807 808 807 808 808 807 808 808 808 809 812 814 816 817 817 817 818 818 819 821 822 822 822 823 825 830 833 833 834 833 832 831 830 830 830 830 830 831 831 831 831
786 788 789 790 790 791 791 791 792 792 793 794 795 796 797 799 800 802 803 805 806 807 808 808 808 808 808 809 810 810 812 813 815 817 817 817 817 817 818 819 820 821 821 822 823 826 829 831 832 833 833 832 830 830 830 828 828 829 829 830 830 830
786 787 788 790 790 791 792 792 792 793 794 794 796 797 798 799 800 802 804 805 806 807 808 808 808 808 808 809 810 812 813 813 814 815 817 817 817 817 817 817 819 821 821 822 823 824 826 827 829 830 831 831 831 830 830 828 828 828 828 828 829 829
785 786 787 788 790 791 791 792 792 793 794 795 796 798 799 800 801 803 804 805 806 807 808 808 808 808 809 809 810 812 813 813 813 814 815 816 816 816 816 816 818 820 821 821 821 822 824 826 828 829 829 830 830 829 829 829 828 828 828 828 828 827
783 785 786 787 789 790 791 792 793 793 794 795 797 798 800 802 803 804 805 805 806 807 807 808 808 809 809 809 809 811 811 812 813 812 813 814 815 815 816 816 817 819 820 820 820 821 823 824 826 827 827 828 828 828 828 828 828 827 827 827 827 826
782 784 785 787 788 790 791 792 793 794 794 795 797 799 801 803 804 805 806 807 807 808 808 808 809 809 809 809 809 809 810 811 812 812 812 813 814 814 815 815 816 818 819 819 819 820 822 823 824 825 827 828 828 828 828 828 827 827 827 827 827 825
781 783 784 786 787 789 791 792 793 794 794 795 798 800 802 804 805 806 807 807 808 808 809 809 809 809 809 809 809 809 810 810 811 811 812 812 813 814 814 815 816 817 818 819 819 820 821 822 823 825 826 827 827 828 829 828 827 827 826 827 826 825
780 782 784 785 786 788 790 792 793 794 796 797 799 801 803 805 805 806 807 808 808 809 810 810 810 810 810 810 810 810 810 811 811 811 811 812 812 813 814 815 817 818 819 819 819 820 820 821 822 823 824 826 828 829 829 827 828 828 826 826 826 825
778 780 782 784 785 787 789 792 793 795 797 798 800 801 803 804 805 806 807 808 809 809 810 811 811 812 812 812 812 811 811 811 811 811 811 811 812 814 815 816 817 818 819 819 819 819 820 820 822 822 824 826 827 828 828 827 829 829 827 826 826 825
777 778 781 783 784 786 789 791 793 795 797 798 799 801 802 804 805 806 808 808 809 810 811 811 812 812 812 813 813 812 812 811 812 811 812 812 813 814 815 816 817 818 819 819 819 820 820 821 823 823 824 825 825 826 827 828 829 829 828 827 826 825
776 777 780 782 784 786 788 790 793 794 796 797 798 800 802 804 805 807 808 809 809 810 811 812 812 812 813 813 813 813 813 813 813 813 813 814 815 815 816 817 818 819 820 820 820 821 821 822 824 825 825 825 826 826 827 828 828 828 828 827 826 825
775 777 779 782 783 785 787 789 791 793 795 796 798 800 802 803 805 807 808 809 810 811 811 812 813 813 814 814 814 814 814 814 814 814 815 816 816 817 818 819 819 820 820 820 821 822 822 824 825 825 825 825 826 826 827 827 827 827 827 827 826 824
775 776 778 781 782 784 786 788 790 792 793 795 797 799 801 803 805 806 808 809 810 811 812 812 813 814 814 815 815 816 816 816 816 816 816 817 817 818 819 820 820 820 821 821 822 822 823 824 825 825 825 826 826 826 827 827 827 827 826 825 825 823
773 775 776 779 781 783 785 786 788 791 792 793 796 798 800 802 804 806 807 809 810 811 812 813 814 814 815 815 816 816 817 817 817 817 818 818 819 819 820 820 821 821 822 822 823 823 824 824 825 826 826 826 827 827 827 827 827 826 825 824 824 824
771 773 775 777 780 781 783 785 787 789 790 792 794 796 798 801 803 805 807 808 810 811 812 813 814 814 815 815 816 816 817 818 818 819 819 819 820 820 821 821 822 822 822 823 823 824 824 825 825 826 826 827 827 827 827 827 827 827 826 825 825 825
768 770 773 775 778 780 781 783 786 787 789 790 792 795 797 800 802 804 806 807 809 810 812 813 813 814 815 816 816 817 818 818 819 819 820 820 821 821 822 822 822 823 823 824 824 824 825 825 826 826 827 827 827 828 828 828 828 827 827 827 826 825
764 767 771 773 776 778 780 782 784 786 787 789 791 793 796 798 801 803 804 806 808 809 810 811 813 814 815 816 817 818 818 819 819 820 821 821 822 822 823 823 824 824 824 825 825 825 825 826 826 826 827 827 828 828 828 828 828 828 828 827 827 827
762 764 769 771 774 778 779 780 782 784 786 788 789 792 794 797 799 801 803 805 806 807 809 810 811 813 814 816 817 818 818 819 820 820 821 822 822 823 824 824 825 825 825 826 826 826 826 826 827 827 827 828 828 828 828 828 828 828 828 828 828 828
765 764 767 770 773 778 779 779 781 783 786 787 789 791 793 796 798 800 802 804 805 806 808 809 810 812 814 815 816 817 818 819 820 820 821 822 822 823 824 824 825 825 825 826 826 826 827 827 827 827 827 828 828 828 828 828 828 828 828 828 828 829
771 766 767 769 773 778 780 779 781 783 785 787 789 791 793 795 797 800 801 803 805 806 807 809 810 811 813 815 816 817 818 819 819 820 821 822 822 823 823 824 824 825 826 826 827 827 827 828 828 828 828 828 829 829 829 829 829 828 828 828 828 828